Flag for U.S.A. Weather past 2 weeks in Pittsburgh, Pennsylvania, U.S.A.

Now
28 °F

Mostly cloudy.


Feels Like: 24 °F
Forecast: 25 / 38 °F
Wind: 3 mph from North

Location: Allegheny County Airport

Current Time: Dec 20, 2014 at 9:06:31 PM

Latest Report: Dec 20, 2014 at 8:04 PM


Visibility: 10 mi

Pressure: 30.24 "Hg

Humidity: 66%

Dew point: 18 °F

Location of PittsburghLocation

Historic Weather in Pittsburgh — Graph

°F

Pittsburgh temperature yesterday

Maximum temperature yesterday: 31 °F (at 2:53 PM)
Minimum temperature yesterday: 27 °F (at 12:53 AM)
Average temperature yesterday: 29 °F

Past Weeks' High & Low Weather Summary

 TemperatureHumidityPressure
High52 °F (Dec 16, 12:53 PM)93% (Dec 5, 6:51 PM)30.63 "Hg (Dec 5, 6:51 PM)
Low25 °F (Dec 11, 9:53 AM)31% (Dec 8, 12:53 PM)29.75 "Hg (Dec 16, 1:53 PM)
Average34 °F73%30.15 "Hg
* Reported Dec 5 6:51 PM — Dec 20 6:53 PM, Pittsburgh, Weather by CustomWeather, © 2014

Note: Actual official high and low records may vary slightly from our data, if they occured in-between our weather recording intervals... More about our weather records

Advertising

Pittsburgh weather history for previous 24 hours

 ConditionsComfort  
Time TempWeatherWind HumidityBarometerVisibility
6:53 PM
Dec 20
28 °FOvercast.3 mph64%30.29 "Hg10 mi
5:53 PM28 °FPassing clouds.6 mph61%30.28 "Hg10 mi
4:53 PM29 °FOvercast.8 mph61%30.28 "Hg10 mi
3:53 PM31 °FSunny.3 mph54%30.27 "Hg10 mi
2:53 PM32 °FSunny.6 mph52%30.26 "Hg10 mi
1:53 PM30 °FSunny.No wind54%30.26 "Hg10 mi
12:53 PM29 °FSunny.3 mph58%30.27 "Hg10 mi
11:53 AM30 °FSunny.No wind56%30.30 "Hg10 mi
10:53 AM28 °FOvercast.No wind61%30.31 "Hg10 mi
9:53 AM27 °FOvercast.3 mph61%30.32 "Hg10 mi
8:53 AM26 °FOvercast.No wind66%30.31 "Hg10 mi
7:53 AM25 °FPartly sunny.6 mph69%30.30 "Hg10 mi
6:53 AM26 °FOvercast.5 mph66%30.31 "Hg10 mi
5:53 AM27 °FOvercast.No wind66%30.31 "Hg10 mi
4:53 AM27 °FOvercast.No wind66%30.29 "Hg10 mi
3:53 AM27 °FOvercast.3 mph63%30.28 "Hg10 mi
2:53 AM28 °FOvercast.No wind64%30.28 "Hg10 mi
1:53 AM28 °FOvercast.No wind64%30.29 "Hg10 mi
12:53 AM29 °FOvercast.3 mph61%30.28 "Hg10 mi
11:53 PM
Dec 19
29 °FOvercast.3 mph61%30.28 "Hg10 mi
10:53 PM29 °FOvercast.6 mph64%30.30 "Hg10 mi
9:53 PM29 °FOvercast.3 mph64%30.30 "Hg10 mi
Weather by CustomWeather, © 2014

See weather overviewHow to use our weather pages